Date String (YYYY-MM-DD hh:mm:ss) UTC,Instrument flags,Ambient pressure (hPa),Sample flow (lpm),Bypass flow (lpm),Sample temperature (°C),Ambient temperature (°C),ASC tube jacket temperature (°C),LED temperature (°C),Box temperature (°C),Sample RH (%),Span deviation,Mass concentration (μg/m³),Mass concentration (μg/m³),Mass concentration (μg/m³)
DateTimeUTC,F1_M11,P_M11,Q1_M11,Q2_M11,T1_M11,T2_M11,T3_M11,T4_M11,T5_M11,U1_M11,ZSPAN_M11,X0_M11,X2_M11,X1_M11
2022-03-24 14:00:00,,0824.3,5.00,0.00,23.0,22.2,00.0,31.9,24.9,11.1,0000.0,0006.54,0001.19,0000.75
2022-03-24 14:01:00,,0824.3,4.99,0.00,23.1,22.2,00.0,31.9,24.9,11.2,0000.0,0006.13,0001.15,0000.75
2022-03-24 14:02:00,,0824.3,5.00,0.00,23.1,22.3,00.0,31.9,24.9,11.3,0000.0,0005.69,0001.14,0000.74
2022-03-24 14:03:00,,0824.3,5.01,0.00,23.1,22.3,00.0,31.9,24.9,11.4,0000.0,0003.33,0001.11,0000.74
2022-03-24 14:04:00,,0824.3,5.00,0.00,23.1,22.3,00.0,32.0,24.9,11.6,0000.0,0003.16,0001.14,0000.74
2022-03-24 14:05:00,,0824.4,5.00,0.00,23.1,22.3,00.0,32.0,24.9,11.7,0000.0,0003.14,0001.11,0000.73
2022-03-24 14:06:00,,0824.4,4.99,0.00,23.1,22.3,00.0,32.0,24.9,11.7,0000.0,0003.11,0001.10,0000.74
2022-03-24 14:07:00,,0824.4,5.01,0.00,23.1,22.3,00.0,32.0,25.0,12.1,0000.0,0003.08,0001.07,0000.74
2022-03-24 14:08:00,,0824.4,5.01,0.00,23.1,22.3,00.0,32.0,25.0,12.1,0000.0,0003.05,0001.06,0000.74
2022-03-24 14:09:00,,0824.4,5.00,0.00,23.1,22.3,00.0,32.0,25.0,12.5,0000.0,0002.42,0001.07,0000.75
2022-03-24 14:10:00,,0824.5,4.99,0.00,23.2,22.3,00.0,32.0,25.0,12.6,0000.0,0002.11,0001.09,0000.76
2022-03-24 14:11:00,,0824.5,5.00,0.00,23.2,22.4,00.0,32.0,25.0,11.9,0000.0,0002.07,0001.07,0000.75
2022-03-24 14:12:00,,0824.6,5.01,0.00,23.2,22.4,00.0,32.1,25.0,12.1,0000.0,0001.98,0001.08,0000.75
2022-03-24 14:13:00,,0824.6,5.00,0.00,23.2,22.4,00.0,32.1,25.0,11.8,0000.0,0001.95,0001.10,0000.75
2022-03-24 14:14:00,,0824.6,5.00,0.00,23.2,22.4,00.0,32.1,25.0,12.0,0000.0,0002.08,0001.13,0000.75
2022-03-24 14:15:00,,0824.6,4.99,0.00,23.2,22.4,00.0,32.1,25.0,12.0,0000.0,0002.10,0001.13,0000.75
2022-03-24 14:16:00,,0824.6,4.99,0.00,23.2,22.4,00.0,32.1,25.0,11.8,0000.0,0002.11,0001.16,0000.76
2022-03-24 14:17:00,,0824.6,5.01,0.00,23.2,22.4,00.0,32.1,25.1,11.9,0000.0,0002.17,0001.17,0000.76
2022-03-24 14:18:00,,0824.6,5.00,0.00,23.3,22.4,00.0,32.1,25.1,11.5,0000.0,0002.14,0001.16,0000.76
2022-03-24 14:19:00,,0824.6,4.99,0.00,23.3,22.5,00.0,32.1,25.1,11.5,0000.0,0002.38,0001.25,0000.77
2022-03-24 14:20:00,,0824.6,5.00,0.00,23.3,22.5,00.0,32.2,25.1,11.7,0000.0,0002.31,0001.22,0000.76
2022-03-24 14:21:00,,0824.6,5.01,0.00,23.3,22.5,00.0,32.2,25.1,11.9,0000.0,0002.29,0001.22,0000.76
2022-03-24 14:22:00,,0824.6,5.00,0.00,23.3,22.5,00.0,32.2,25.1,11.9,0000.0,0002.32,0001.25,0000.77
2022-03-24 14:23:00,,0824.6,5.00,0.00,23.3,22.5,00.0,32.2,25.1,11.9,0000.0,0002.30,0001.25,0000.77
2022-03-24 14:24:00,,0824.6,4.99,0.00,23.3,22.6,00.0,32.2,25.2,11.9,0000.0,0002.49,0001.23,0000.77
2022-03-24 14:25:00,,0824.6,5.00,0.00,23.4,22.6,00.0,32.2,25.2,12.0,0000.0,0002.55,0001.21,0000.78
2022-03-24 14:26:00,,0824.6,5.01,0.00,23.4,22.6,00.0,32.2,25.2,11.7,0000.0,0002.59,0001.21,0000.79
2022-03-24 14:27:00,,0824.6,5.00,0.00,23.4,22.6,00.0,32.2,25.2,11.9,0000.0,0002.55,0001.18,0000.78
2022-03-24 14:28:00,,0824.6,5.00,0.00,23.4,22.6,00.0,32.3,25.2,11.9,0000.0,0002.67,0001.21,0000.78
2022-03-24 14:29:00,,0824.6,4.99,0.00,23.4,22.7,00.0,32.3,25.2,12.0,0000.0,0002.86,0001.27,0000.79
2022-03-24 14:30:00,,0824.6,5.01,0.00,23.4,22.7,00.0,32.3,25.3,11.8,0000.0,0002.59,0001.18,0000.78
2022-03-24 14:31:00,,0824.6,5.00,0.00,23.4,22.7,00.0,32.3,25.3,11.8,0000.0,0002.55,0001.17,0000.79
2022-03-24 14:32:00,,0824.6,5.00,0.00,23.5,22.7,00.0,32.3,25.3,11.8,0000.0,0002.56,0001.16,0000.79
2022-03-24 14:33:00,,0824.6,4.99,0.00,23.5,22.7,00.0,32.3,25.3,11.8,0000.0,0002.57,0001.15,0000.78
2022-03-24 14:34:00,,0824.6,5.01,0.00,23.5,22.7,00.0,32.3,25.3,11.5,0000.0,0002.61,0001.16,0000.79
2022-03-24 14:35:00,,0824.6,5.00,0.00,23.5,22.7,00.0,32.4,25.4,11.8,0000.0,0002.33,0001.16,0000.79
2022-03-24 14:36:00,,0824.6,5.00,0.00,23.5,22.8,00.0,32.4,25.4,12.0,0000.0,0002.16,0001.17,0000.78
2022-03-24 14:37:00,,0824.6,5.01,0.00,23.5,22.8,00.0,32.4,25.4,11.8,0000.0,0001.99,0001.12,0000.76
2022-03-24 14:38:00,,0824.7,5.00,0.00,23.6,22.8,00.0,32.4,25.4,11.6,0000.0,0001.98,0001.12,0000.76
2022-03-24 14:39:00,,0824.7,5.00,0.00,23.6,22.8,00.0,32.4,25.4,11.6,0000.0,0001.86,0001.12,0000.76
2022-03-24 14:40:00,,0824.6,4.99,0.00,23.6,22.8,00.0,32.4,25.5,11.6,0000.0,0001.65,0001.06,0000.76
2022-03-24 14:41:00,,0824.7,5.01,0.00,23.6,22.8,00.0,32.5,25.5,11.8,0000.0,0001.68,0001.07,0000.77
2022-03-24 14:42:00,,0824.6,4.99,0.00,23.6,22.9,00.0,32.5,25.5,12.0,0000.0,0001.78,0001.11,0000.77
2022-03-24 14:43:00,,0824.6,4.99,0.00,23.6,22.9,00.0,32.5,25.5,11.7,0000.0,0001.82,0001.13,0000.77
2022-03-24 14:44:00,,0824.6,5.02,0.00,23.7,22.9,00.0,32.5,25.5,11.8,0000.0,0001.86,0001.16,0000.79
2022-03-24 14:45:00,,0824.6,5.00,0.00,23.7,22.9,00.0,32.5,25.5,11.9,0000.0,0001.78,0001.14,0000.79
2022-03-24 14:46:00,,0824.6,5.01,0.00,23.7,22.9,00.0,32.5,25.5,11.8,0000.0,0001.87,0001.18,0000.79
2022-03-24 14:47:00,,0824.6,5.00,0.00,23.7,22.9,00.0,32.5,25.5,11.8,0000.0,0002.08,0001.20,0000.79
2022-03-24 14:48:00,,0824.6,5.01,0.00,23.7,22.9,00.0,32.6,25.5,11.5,0000.0,0002.62,0001.25,0000.80
2022-03-24 14:49:00,,0824.7,5.02,0.00,23.7,23.0,00.0,32.6,25.6,11.6,0000.0,0002.89,0001.26,0000.80
2022-03-24 14:50:00,,0824.6,5.01,0.00,23.7,23.0,00.0,32.6,25.6,11.4,0000.0,0003.01,0001.26,0000.81
2022-03-24 14:51:00,,0824.6,4.99,0.00,23.8,23.0,00.0,32.6,25.6,11.6,0000.0,0003.16,0001.30,0000.81
2022-03-24 14:52:00,,0824.6,5.00,0.00,23.8,23.0,00.0,32.6,25.6,11.3,0000.0,0003.34,0001.33,0000.81
2022-03-24 14:53:00,,0824.6,5.02,0.00,23.8,23.0,00.0,32.6,25.6,11.5,0000.0,0003.30,0001.30,0000.80
2022-03-24 14:54:00,,0824.6,4.99,0.00,23.8,23.0,00.0,32.6,25.6,11.5,0000.0,0003.26,0001.29,0000.80
2022-03-24 14:55:00,,0824.6,5.00,0.00,23.8,23.0,00.0,32.7,25.7,11.3,0000.0,0003.84,0001.29,0000.79
2022-03-24 14:56:00,,0824.7,5.00,0.00,23.8,23.0,00.0,32.7,25.7,11.8,0000.0,0004.70,0001.26,0000.79
2022-03-24 14:57:00,,0824.6,5.00,0.00,23.8,23.0,00.0,32.7,25.7,11.8,0000.0,0004.79,0001.23,0000.78
2022-03-24 14:58:00,,0824.6,5.01,0.00,23.8,23.0,00.0,32.7,25.6,11.5,0000.0,0004.55,0001.21,0000.78
2022-03-24 14:59:00,,0824.6,4.99,0.00,23.9,23.0,00.0,32.7,25.7,11.4,0000.0,0004.11,0001.19,0000.78
